Regional Weather Roundup
Issued by NWS

Home | Current Version | Previous Version | Text Only | Print | Product List | Glossary Off
Versions: 1 2 3 4 5 6 7 8 9 10 11 12 13 14 15 16 17 18 19 20 21 22 23 24 25 26 27 28 29 30 31 32 33 34 35 36 37 38 39 40 41 42 43 44 45 46 47 48 49 50

000
ASUS43 KMKX 312121
RWRWI

WISCONSIN REGIONAL WEATHER ROUNDUP
NATIONAL WEATHER SERVICE MILWAUKEE/SULLIVAN WI
400 PM CDT FRI JUL 31 2015

NOTE: "FAIR" INDICATES FEW OR NO CLOUDS BELOW 12,000 FEET WITH NO
SIGNIFICANT WEATHER AND/OR OBSTRUCTIONS TO VISIBILITY.

WIZ001-002-006>008-014>016-023>028-312200-
NORTHWEST WISCONSIN

CITY           SKY/WX    TMP DP  RH WIND       PRES   REMARKS
SUPERIOR ARPT  MOSUNNY   79  54  41 W17G26    29.92F
ASHLAND        CLOUDY    67  60  78 CALM      29.94R
HAYWARD        SUNNY     77  51  40 MISG      29.96F
SIREN          MOSUNNY   79  47  32 NW16G23   29.98F
CUMBERLAND     SUNNY     75  50  41 W17G23    29.99F
RICE LAKE      MOSUNNY   76  52  42 W13G23    30.00F
CHETEK         MOSUNNY   78  53  42 W14       29.98F
LADYSMITH      MOSUNNY   76  53  44 W14       29.99S
EAU CLAIRE     MOSUNNY   79  50  36 W14       29.98F
MENOMONIE      SUNNY     81  46  30 W16G24    30.00F HX  80
NEW RICHMOND   MOSUNNY   79  47  32 W16G24    30.01F
OSCEOLA        MOSUNNY   79  48  34 W16G24    30.03F
$$

WIZ003>005-009-010-017-018-312200-
NORTH CENTRAL WISCONSIN

CITY           SKY/WX    TMP DP  RH WIND       PRES   REMARKS
MANITOWISH WTR PTSUNNY   71  53  51 NW10G18   29.93F
ARBOR VITAE    PTSUNNY   74  51  44 NW16G24   29.94S
WOODRUFF       PTSUNNY   74  51  44 NW16G24   29.94S
RHINELANDER    MOSUNNY   76  49  38 NW12G24   29.94S
EAGLE RIVER    MOSUNNY   73  46  38 NW17G23   29.93R
LAND O LAKES   MOSUNNY   75  47  37 W15G24    29.93S
PHILLIPS       CLOUDY    73  51  46 NW9       29.95S
TOMAHAWK       MOSUNNY   73  49  42 W8G23     29.95S
MEDFORD        MOSUNNY   75  51  43 W16G24    29.97S
MERRILL        NOT AVBL
$$

WIZ029-030-035-036-043>047-312200-
CENTRAL WISCONSIN

CITY           SKY/WX    TMP DP  RH WIND       PRES   REMARKS
WAUSAU         MOSUNNY   79  48  33 NW16      29.93S
MOSINEE        MOSUNNY   77  50  38 NW6G24    29.96S
MARSHFIELD     MOSUNNY   79  49  34 NW20G31   29.97F
STEVENS POINT  PTSUNNY   77  52  41 W14G23    29.95S
WAUPACA        MOSUNNY   82  49  32 W15G21    29.93S HX  81
WAUTOMA        MOSUNNY   83  48  29 NW13G23   29.94F HX  81
WISC RAPIDS    MOSUNNY   78  48  34 NW17G29   29.97F
CAMP DOUGLAS   SUNNY     80  53  40 NW14G25   29.97F HX  80
$$

WIZ011>013-019>022-031-037>040-048>050-312200-
NORTHEAST WISCONSIN

CITY           SKY/WX    TMP DP  RH WIND       PRES   REMARKS
ANTIGO         PTSUNNY   76  50  39 W18G25    29.93S
SHAWANO        MOSUNNY   82  49  32 NW17G25   29.89S HX  80
OCONTO         SUNNY     81  53  37 NW9       29.86S HX  80
STURGEON BAY   PTSUNNY   79  52  38 W9        29.88F
GREEN BAY      MOSUNNY   79  52  38 NW15G24   29.88F
MANITOWOC      SUNNY     81  49  32 MISG      29.89F HX  80
APPLETON       PTSUNNY   81  48  32 W16G25    29.92F HX  80
CLINTONVILLE   SUNNY     81  45  28 NW20G28   29.90F
OSHKOSH        MOSUNNY   81  51  35 W17G28    29.91F HX  80
$$

WIZ032>034-041-042-053>061-312200-
SOUTHWEST WISCONSIN

CITY           SKY/WX    TMP DP  RH WIND       PRES   REMARKS
LA CROSSE      SUNNY     83  49  30 NW21      29.99F HX  81
SPARTA         MOSUNNY   81  45  27 NW16G28   29.99F HX  80
VIROQUA        SUNNY     78  50  37 W10G20    30.02F
BOSCOBEL       SUNNY     85  50  29 NW18G24   30.00F HX  83
PRAIRIE DU CHI SUNNY     83  43  24 W18G25    30.01S HX  81
PLATTEVILLE    SUNNY     82  50  33 NW15G25   30.01S HX  81
$$

WIZ056-057-062-063-064-067-068-312200-
SOUTH CENTRAL WISCONSIN

CITY           SKY/WX    TMP DP  RH WIND       PRES   REMARKS
REEDSBURG      MOSUNNY   81  49  31 W13G23    29.97F HX  80
BARABOO/DELLS  MOSUNNY   81  43  26 NW17      29.97F
LONE ROCK      SUNNY     83  50  31 NW15G22   29.99S HX  81
MINERAL POINT  SUNNY     81  43  26 NW17G26   30.01S
MADISON        MOSUNNY   81  51  35 NW10G20   29.96F HX  80
MIDDLETON      SUNNY     83  45  26 NW17G25   29.98F HX  81
WATERTOWN      PTSUNNY   81  53  37 W12G21    29.95F HX  80
MONROE         SUNNY     81  46  30 NW14G29   29.99S HX  80
JANESVILLE     SUNNY     84  46  26 NW17G23   29.96F HX  82
$$

WIZ051-052-058>065-066-070>072-312200-
SOUTHEAST WISCONSIN

CITY           SKY/WX    TMP DP  RH WIND       PRES   REMARKS
MILWAUKEE      MOSUNNY   83  47  28 NW22G29   29.93F HX  81
WAUKESHA       MOSUNNY   81  48  32 W17G25    29.95F HX  80
MILWAUKEE/TIMM MOSUNNY   82  45  26 W18G26    29.94S HX  80
RACINE         MOSUNNY   83  48  29 NW14G25   29.94F HX  81
BURLINGTON     SUNNY     81  45  27 NW14G23   29.95S HX  80
KENOSHA        SUNNY     82  48  30 NW21G31   29.94F HX  81
FOND DU LAC    MOSUNNY   82  51  34 W18G26    29.93F HX  81
SHEBOYGAN      SUNNY     80  51  36 NW15G26   29.90F HX  80
WEST BEND      MOSUNNY   81  43  26 W17G25    29.93S
JUNEAU         MOSUNNY   78  51  38 W10G21    29.95F
$$

LSZ147-162-312200-
LAKE SUPERIOR

STATION/POSITION TIME  TEMP    WIND        PRES    WAVE
                       AIR SEA DIR/SP/G            HT/PER
                 (UTC) (F)     (DEG/KT/KT) (MB)    (FT/S)
W MID LAKE BUOY  2050   59 54  260/ 12/ 14 1011.5F   2/ 4
DEVILS ISLAND    2100   61     230/ 14/ 16 1012.8F
PORT WING        2020   69     230/ 10/ 23 1013.5S
SAXON HARBOR     2109   67                 1014.6
$$

LMZ867-665-643>646-312200-
LAKE MICHIGAN

STATION/POSITION TIME  TEMP    WIND        PRES    WAVE
                       AIR SEA DIR/SP/G            HT/PER
                 (UTC) (F)     (DEG/KT/KT) (MB)    (FT/S)
CHAMBERS ISLAND  2000   76     300/  8/ 16 1010.8R
S GREEN BAY BUOY 2100   72 72  280/ 10/ 12 1012.8
N MID LAKE BUOY  2050   71 69  270/ 16/ 17 1009.6F   1/ 4
NORTHPORT PIER   2000   73     320/ 15/ 19 1010.5S
SISTER BAY       2044   75     330/ 20/ 23   N/A
ALGOMA LAKESHORE 2012          310/ 12/ 25   N/A
KEWAUNEE LAKESHO 2000   78     320/  9/ 16 1011.2F
SHEBOYGAN LAKESH 2100   79     280/ 21/ 26 1012.3F
PORT WASHINGTON  2000   83     290/  9/ 21 1013.5S
ATWATER BUOY     2100   75 65  290/ 14/ 17 1014.5F
MILWAUKEE LAKESH 2100   80     290/ 15/ 23   N/A
KENOSHA   LAKESH 2100   82     290/ 16/ 21 1012.9S
$$

TC  - TEMPERATURE IN CELSIUS
VSB - VISIBILITY IN STATUTE MILES
WCI - WIND CHILL INDEX
HX  - HEAT INDEX



USA.gov is the U.S. government's official web portal to all federal, state and local government web resources and services.